Weather History for Santee, CA

Change the Weather History Date:

Sunday, October 14, 2012

  Actual Average Record
Temperature  
Mean Temperature 71 °F -  
Max Temperature 91 °F 80 °F 96 °F (1997)
Min Temperature 51 °F 53 °F 42 °F (1981)
Cooling Degree Days 6    
Growing Degree Days 21 (Base 50)    
Moisture  
Dew Point 52 °F    
Average Humidity 75    
Maximum Humidity 100    
Minimum Humidity 23    
Precipitation  
Precipitation 0.00 in - - ()
Sea Level Pressure  
Sea Level Pressure 30.03 in    
Wind  
Wind Speed 1 mph (West)    
Max Wind Speed 14 mph    
Max Gust Speed -    
Visibility 11 miles    
Events      
Averages and records for this station are not official NWS values.
T = Trace of Precipitation, MM = Missing Value Source: NWS Daily Summary

Daily Weather History Graph

Daily Weather History Graph

Search for Another Location

Airport:

Trip Planner

Search our weather history database for the weather conditions in past years. The results will help you decide how hot, cold, wet, or windy it might be!

Date:

Astronomy

Oct. 14, 2012 Rise Set
Actual Time 6:51 AM PDT 6:15 PM PDT
Civil Twilight 6:26 AM PDT 6:40 PM PDT
Nautical Twilight 5:58 AM PDT 7:08 PM PDT
Astronomical Twilight 5:29 AM PDT 7:37 PM PDT
Moon 5:56 AM PDT (10/14) 5:39 PM PDT (10/14)
Length of Visible Light 12h 13m
Length of Day
11h 23m
Waning Crescent, 1% of the Moon is Illuminated
Oct 14
Waning Crescent
Oct 15
New
Oct 21
First Quarter
Oct 29
Full
Nov 6
Last Quarter

Hourly Weather History & Observations

Time (PDT) Temp. Heat Index Dew Point Humidity Pressure Visibility Wind Dir Wind Speed Gust Speed Precip Events Conditions
12:15 AM 57.2 °F - 55.4 °F 94% 30.07 in 10.0 mi Calm Calm - N/A   Clear
12:55 AM 57.2 °F - 55.4 °F 94% 30.07 in 10.0 mi Calm Calm - N/A   Clear
1:15 AM 57.2 °F - 55.4 °F 94% 30.07 in 10.0 mi Calm Calm - N/A   Clear
1:35 AM 57.2 °F - 55.4 °F 94% 30.07 in 10.0 mi Calm Calm - N/A   Clear
1:55 AM 55.4 °F - 55.4 °F 100% 30.07 in 10.0 mi Calm Calm - N/A   Clear
2:15 AM 55.4 °F - 55.4 °F 100% 30.07 in 10.0 mi Calm Calm - N/A   Clear
2:35 AM 55.4 °F - 55.4 °F 100% 30.07 in 10.0 mi Calm Calm - N/A   Clear
2:55 AM 55.4 °F - 53.6 °F 94% 30.06 in 10.0 mi Calm Calm - N/A   Clear
3:15 AM 55.4 °F - 55.4 °F 100% 30.06 in 10.0 mi Calm Calm - N/A   Clear
3:35 AM 55.4 °F - 53.6 °F 94% 30.06 in 10.0 mi NW 3.5 mph - N/A   Clear
3:55 AM 53.6 °F - 53.6 °F 100% 30.06 in 10.0 mi WNW 3.5 mph - N/A   Clear
4:15 AM 53.6 °F - 53.6 °F 100% 30.06 in 10.0 mi Calm Calm - N/A   Clear
4:35 AM 53.6 °F - 53.6 °F 100% 30.06 in 10.0 mi Calm Calm - N/A   Clear
4:55 AM 53.6 °F - 53.6 °F 100% 30.07 in 10.0 mi Calm Calm - N/A   Clear
5:15 AM 53.6 °F - 53.6 °F 100% 30.07 in 10.0 mi Calm Calm - N/A   Clear
5:35 AM 53.6 °F - 53.6 °F 100% 30.07 in 10.0 mi Calm Calm - N/A   Clear
5:55 AM 53.6 °F - 53.6 °F 100% 30.07 in 10.0 mi Calm Calm - N/A   Clear
6:15 AM 51.8 °F - 51.8 °F 100% 30.07 in 10.0 mi Calm Calm - N/A   Clear
6:47 AM 51.8 °F - 51.8 °F 100% 30.06 in 20.0 mi Calm Calm - N/A   Clear
7:47 AM 53.6 °F - 53.6 °F 100% 30.07 in 20.0 mi Calm Calm - N/A   Clear
8:47 AM 60.8 °F - 53.6 °F 77% 30.06 in 25.0 mi Calm Calm - N/A   Clear
10:47 AM 60.8 °F - 48.2 °F 63% 30.02 in 25.0 mi Calm Calm - N/A   Clear
11:47 AM 91.4 °F - 48.2 °F 23% 29.99 in 25.0 mi Calm Calm - N/A   Clear
1:47 PM 91.4 °F 89.1 °F 53.6 °F 28% 29.96 in 25.0 mi SW 11.5 mph - N/A   Clear
2:47 PM 89.6 °F - 48.2 °F 24% 29.94 in 25.0 mi West 13.8 mph - N/A   Clear
4:47 PM 87.8 °F - 50.0 °F 27% 29.95 in 25.0 mi WNW 9.2 mph - N/A   Clear
6:47 PM 78.8 °F - 46.4 °F 32% 29.95 in 25.0 mi West 3.5 mph - N/A   Clear
7:47 PM 73.4 °F - 48.2 °F 41% 29.96 in 25.0 mi West 4.6 mph - N/A   Clear
8:47 PM 71.6 °F - 50.0 °F 46% 29.96 in 7.0 mi Calm Calm - N/A   Clear
9:15 PM 69.8 °F - 50.0 °F 49% 29.98 in 10.0 mi Calm Calm - N/A   Clear
9:35 PM 69.8 °F - 50.0 °F 49% 29.98 in 10.0 mi Calm Calm - N/A   Clear
9:55 PM 68.0 °F - 50.0 °F 52% 29.98 in 10.0 mi Calm Calm - N/A   Clear
10:35 PM 64.4 °F - 50.0 °F 59% 29.98 in 10.0 mi Calm Calm - N/A   Clear
10:55 PM 64.4 °F - 48.2 °F 56% 29.99 in 10.0 mi WNW 3.5 mph - N/A   Clear
11:35 PM 62.6 °F - 46.4 °F 55% 29.98 in 10.0 mi West 4.6 mph - N/A   Clear
11:55 PM 62.6 °F - 46.4 °F 55% 29.97 in 10.0 mi Calm Calm - N/A   Clear